NOAA-18
1 28654U 05018A 10266.41499292 .00000297 00000-0 18849-3 0 4899
2 28654 098.9582 212.4333 0014953 134.1507 226.0906 14.11391056275290
NOAA-19
1 33591U 09005A 10266.42443257 -.00000105 00000-0 -34490-4 0 6855
2 33591 098.7947 206.4852 0014665 015.0414 345.1181 14.11084922 83760
HUBBLE
1 20580U 90037B 10265.25740514 .00000595 00000-0 32635-4 0 6490
2 20580 028.4710 326.1269 0003597 154.1233 205.9576 15.01040865919352
ISS
1 25544U 98067A 10267.01529725 .00016022 00000-0 12801-3 0 9432
2 25544 051.6446 084.9754 0006746 028.0911 112.1887 15.71273653679010
CO-58
1 28895U 05043F 10265.71651820 .00000345 00000-0 81199-4 0 06876
2 28895 097.9979 146.8855 0017392 343.0201 017.0438 14.59936295261214
FALCON
1 30776U 07006E 10266.87694109 .00000995 00000-0 73877-4 0 9219
2 30776 035.4330 165.0590 0001925 310.1256 049.9275 15.03829462194925
MAST
1 31126U 07012K 10266.58732791 .00000114 00000-0 36534-4 0 9700
2 31126 097.9281 303.4659 0093594 280.5967 078.4688 14.53621528182355
CAPE1
1 31130U 07012P 10266.59608780 .00000126 00000-0 39841-4 0 9893
2 31130 097.9317 300.6921 0101729 289.3200 069.6997 14.52224023181945
COMPASS
1 32787U 08021E 10265.19619769 .00000148 00000-0 25301-4 0 07839
2 32787 097.8851 328.5740 0015330 333.8558 026.1916 14.81969727129868
AAUSAT2
1 32788U 08021F 10266.67499206 .00000544 00000-0 74929-4 0 7757
2 32788 097.8851 330.1810 0014801 329.8490 030.1868 14.82121499130093
DO-64
1 32789U 08021G 10266.74023887 .00000825 00000-0 10966-3 0 7936
2 32789 097.8927 330.8351 0015039 327.9849 032.0455 14.82316573130100
CO-66
1 32791U 08021J 10265.16518040 .00000595 00000-0 82048-4 0 07782
2 32791 097.8866 328.5451 0015692 332.6641 027.3728 14.81742303129817
RS-30
1 32953U 08025A 10266.72864812 .00000010 00000-0 00000 0 0 698
2 32953 082.5056 328.4102 0017620 245.7386 114.1853 12.43007946105983
TACSAT-3
1 35001U 09028A 10266.66608249 .00006611 00000-0 15160-3 0 3897
2 35001 040.4564 342.1633 0021586 019.4372 340.7262 15.42775913 75846
PHARMSAT
1 35002U 09028B 10266.58932248 .00005954 00000-0 13490-3 0 3666
2 35002 040.4711 340.3126 0024496 022.0283 338.1580 15.43193236 75850
HAWKSAT1
1 35003U 09028C 10265.62701669 .00013877 00000-0 26700-3 0 3966
2 35003 040.4617 337.6823 0022165 035.4209 324.8077 15.47301423 75807
CP6
1 35004U 09028D 10265.56097960 .00016993 00000-0 31228-3 0 3921
2 35004 040.4623 336.2687 0021433 039.2157 321.0212 15.48525320 75804
AEROCUB3
1 35005U 09028E 10266.56295885 .00068428 00000-0 83381-3 0 4602
2 35005 040.4689 321.1281 0020400 073.2787 287.0272 15.59266608 76069
CASTOR
1 35694U 09038F 10230.44082147 .07179566 12689-4 99310-4 0 6559
2 35694 051.5930 222.0149 0004218 308.0851 053.0105 16.48877011 61107
METEOR-M
1 35865U 09049A 10266.72493621 .00000176 00000-0 10000-3 0 6825
2 35865 098.7476 319.7666 0003385 076.8451 283.3063 14.21831589 52721
RS-38
1 35869U 09049E 10266.68568413 .00000177 00000-0 10000-3 0 6939
2 35869 098.7463 319.7665 0005413 078.5901 281.5866 14.21989016 52723
